Flag for France Weather past 2 weeks in Lille, France

Now
59 °F

Clear.


Feels Like: 59 °F
Forecast: 57 / 76 °F
Wind: 2 mph from Northeast

Location: Lille Airport

Current Time: Sep 16, 2014 at 4:00:37 AM

Latest Report: Sep 16, 2014 at 3:00 AM


Visibility: 4 mi

Pressure: 29.98 "Hg

Humidity: 88%

Dew point: 55 °F

Location of LilleLocation

Historic Weather in Lille — Graph

°F

Lille temperature yesterday

Maximum temperature yesterday: 73 °F (at 2:00 PM)
Minimum temperature yesterday: 55 °F (at 7:30 AM)
Average temperature yesterday: 64 °F

Past Weeks' High & Low Weather Summary

 TemperatureHumidityPressure
High73 °F (Sep 5, 3:00 PM)100% (Sep 1, 4:30 AM)30.27 "Hg (Sep 1, 4:30 AM)
Low48 °F (Sep 1, 6:00 AM)50% (Sep 3, 5:30 PM)29.92 "Hg (Sep 5, 6:30 PM)
Average62 °F80%30.09 "Hg
* Reported Sep 1 4:00 AM — Sep 16 3:00 AM, Lille, Weather by CustomWeather, © 2014

Note: Actual official high and low records may vary slightly from our data, if they occured in-between our weather recording intervals... More about our weather records

Advertising

Lille weather history for previous 24 hours

 ConditionsComfort  
Time TempWeatherWind HumidityBarometerVisibility
3:00 AM
Sep 16
59 °FClear.2 mph88%29.98 "Hg4 mi
2:30 AM59 °FClear.No wind88%29.98 "Hg4 mi
2:00 AM61 °FClear.3 mph83%29.98 "Hg10 mi
1:00 AM61 °FClear.3 mph83%29.98 "Hg10 mi
12:00 AM63 °FClear.5 mph83%29.98 "Hg10 mi
11:30 PM
Sep 15
61 °FClear.6 mph83%29.98 "Hg10 mi
11:00 PM63 °FClear.5 mph83%29.98 "Hg10 mi
10:30 PM63 °FClear.5 mph83%29.98 "Hg10 mi
10:00 PM64 °FClear.5 mph78%29.98 "Hg10 mi
9:30 PM64 °FClear.6 mph78%29.98 "Hg10 mi
9:00 PM66 °FScattered clouds.5 mph73%29.98 "HgN/A
8:30 PM68 °FScattered clouds.6 mph69%29.95 "HgN/A
8:00 PM70 °FScattered clouds.6 mph60%29.95 "HgN/A
7:30 PM70 °FScattered clouds.6 mph64%29.95 "HgN/A
7:00 PM72 °FScattered clouds.8 mph61%29.95 "HgN/A
6:30 PM72 °FPartly sunny.7 mph61%29.95 "HgN/A
6:00 PM73 °FPartly sunny.9 mph57%29.95 "HgN/A
5:30 PM73 °FPartly sunny.6 mph53%29.95 "HgN/A
5:00 PM73 °FPartly sunny.7 mph57%29.95 "HgN/A
4:30 PM73 °FScattered clouds.7 mph53%29.95 "HgN/A
4:00 PM73 °FScattered clouds.8 mph57%29.98 "HgN/A
3:30 PM73 °FPartly sunny.9 mph57%29.98 "HgN/A
3:00 PM73 °FPartly sunny.7 mph57%29.98 "HgN/A
2:30 PM72 °FPartly sunny.5 mph61%29.98 "HgN/A
2:00 PM73 °FPartly sunny.6 mph65%29.98 "HgN/A
1:30 PM72 °FPartly sunny.6 mph69%29.98 "HgN/A
12:30 PM70 °FPartly sunny.5 mph69%30.01 "HgN/A
12:00 PM68 °FPassing clouds.3 mph73%30.01 "HgN/A
11:30 AM66 °FClear.6 mph78%30.01 "Hg6 mi
11:00 AM64 °FClear.3 mph78%30.01 "Hg5 mi
10:30 AM63 °FClear.5 mph83%30.01 "Hg5 mi
10:00 AM63 °FClear.3 mph77%30.01 "Hg4 mi
9:30 AM61 °FClear.3 mph83%30.01 "Hg4 mi
9:00 AM59 °FClear.3 mph88%30.01 "Hg4 mi
8:00 AM55 °FClear.3 mph100%30.01 "Hg4 mi
7:30 AM55 °FClear.5 mph94%30.01 "Hg4 mi
7:00 AM57 °FClear.6 mph88%30.01 "Hg4 mi
6:30 AM57 °FClear.7 mph94%30.01 "Hg4 mi
6:00 AM57 °FClear.6 mph88%30.01 "Hg5 mi
5:30 AM59 °FClear.6 mph88%30.01 "Hg6 mi
5:00 AM59 °FClear.6 mph88%30.01 "Hg6 mi
4:30 AM59 °FMostly cloudy.6 mph88%30.04 "HgN/A
4:00 AM57 °FMostly cloudy.6 mph94%30.04 "HgN/A
Weather by CustomWeather, © 2014

See weather overviewHow to use our weather pages